RH
4 6 10 14 95 100 100 100 100 100 100 100 96 99 95 100 100 100 99 72 73 93 95 71 70 84 100 100 100 100 100 100 100 100 100 100 100 91 71 49 57 45 44
6 9 15 18 42 100 100 100 100 100 100 100 100 100 98 100 100 100 100 100 79 68 80 89 74 66 84 100 100 100 100 100 100 96 100 100 100 100 74 48 55 78 62
7 12 19 24 26 89 91 99 100 100 100 100 100 100 100 94 100 100 100 99 87 94 80 85 92 92 56 73 93 100 87 96 100 63 97 100 100 100 68 63 65 76 61
18 17 39 95 100 57 99 100 100 100 100 100 100 100 100 100 100 100 97 77 88 73 68 60 75 100 100 100 92 100 98 63 84 100 68 88 99 100 73 59 76 64 71
19 62 100 100 100 100 100 100 100 100 100 100 100 100 100 100 100 100 98 97 100 76 68 50 54 86 100 100 100 100 100 97 91 100 83 84 91 100 100 88 97 88 84
22 33 96 100 100 100 100 100 100 100 98 100 100 100 100 100 100 100 100 100 100 100 58 49 53 49 59 85 100 100 100 100 100 100 89 93 86 98 85 86 63 65 100
71 97 83 67 63 100 100 100 100 100 100 100 100 100 100 100 100 100 100 100 100 100 56 58 73 55 44 45 64 100 100 100 100 100 100 100 100 100 100 91 94 93 100
80 100 100 100 100 100 100 100 100 100 100 100 100 100 100 100 100 100 100 87 88 86 76 77 70 68 61 50 32 71 94 100 100 100 100 100 100 100 98 100 94 96 100
66 63 53 66 100 100 100 100 100 100 100 100 100 100 100 100 89 97 94 92 73 89 100 87 76 72 64 49 40 39 53 67 90 100 100 100 100 100 100 100 100 100 100
100 89 70 51 31 40 47 61 82 92 98 99 100 100 100 93 68 76 90 78 79 78 84 80 68 43 37 34 37 37 43 72 76 86 99 100 100 100 100 100 100 100 100
100 100 100 100 90 84 74 60 56 78 84 67 67 70 74 79 72 69 70 74 68 53 52 50 42 43 43 43 43 37 34 44 67 75 77 76 100 100 100 100 100 100 100
81 86 96 100 98 94 76 77 80 68 67 56 47 45 45 45 43 42 46 51 52 51 47 42 40 33 31 29 27 28 28 32 49 56 64 70 65 79 100 100 100 99 100
100 92 97 81 72 81 78 84 87 77 74 67 59 61 61 58 54 56 54 51 51 48 44 38 31 30 33 34 35 30 29 28 30 33 40 44 47 66 78 85 81 78 83
89 94 93 91 98 100 100 100 100 79 69 60 54 54 61 61 64 65 63 63 64 68 69 61 58 54 47 45 39 36 33 29 30 30 33 35 35 36 52 64 71 78 100
100 95 84 76 75 71 69 72 85 93 94 94 94 92 87 70 87 83 96 89 95 88 90 83 82 77 67 55 53 51 48 42 33 32 32 32 32 34 52 66 90 100 100
92 100 100 100 100 100 88 87 81 70 69 71 70 73 69 75 97 98 83 80 78 75 70 71 83 91 89 92 76 58 52 52 48 41 33 31 35 34 39 46 51 74 100
84 77 66 64 65 62 66 67 64 63 69 56 50 51 47 48 51 48 51 59 67 61 59 55 57 58 53 59 60 63 62 59 58 54 51 43 39 43 48 52 58 70 80
67 57 50 47 45 43 41 38 36 34 38 38 34 40 31 28 29 29 27 27 28 32 33 37 44 41 39 41 40 42 51 48 50 53 57 60 62 56 60 68 69 76 80
48 48 45 46 48 49 48 47 42 39 36 32 30 28 27 24 23 23 23 22 21 22 22 23 24 26 26 28 30 30 32 33 38 44 49 50 58 61 64 65 72 82 92
25 22 21 20 19 18 16 15 14 13 12 10 9 9 8 7 7 7 8 8 7 8 8 9 11 14 15 16 19 19 20 21 24 28 33 41 45 48 54 60 66 69 77
27 28 28 28 28 27 24 20 17 13 10 8 7 7 7 6 6 5 5 6 6 6 6 6 6 6 6 6 7 8 10 12 12 15 18 21 26 30 35 38 42 44 46
47 42 36 30 25 20 16 11 7 6 5 5 5 5 5 5 4 4 4 4 4 4 4 4 4 5 5 5 6 5 6 6 7 8 9 11 13 16 20 23 25 28 30
48 43 37 31 24 17 11 7 5 4 3 3 3 3 3 3 3 3 2 3 3 3 3 3 3 3 3 4 4 4 5 5 6 6 6 7 7 8 10 12 15 18 20
52 45 36 26 18 10 6 4 3 3 2 2 2 2 2 2 2 2 2 2 2 2 2 2 2 2 2 2 3 3 3 4 4 4 5 5 6 6 7 8 8 9 11
46 35 25 17 10 7 5 3 3 2 2 2 2 2 2 2 2 2 2 2 2 2 2 2 2 2 2 2 2 2 2 2 2 3 3 4 4 4 5 5 6 6 7
30 21 14 9 6 4 3 3 2 2 2 2 2 2 1 1 1 1 2 2 2 2 2 2 2 2 2 2 2 2 2 2 2 2 2 2 2 3 3 3 4 4 5
Wind_Speed
45 53 62 62 72 81 70 64 60 71 79 73 61 53 48 58 66 60 56 60 60 46 42 49 47 43 47 42 47 51 51 50 47 50 48 51 50 47 42 42 42 40 39
48 61 68 71 67 71 79 74 68 67 57 66 78 77 71 68 70 68 74 65 64 60 51 47 54 51 64 64 54 53 57 55 51 46 52 55 54 54 50 47 44 44 44
55 62 66 68 67 83 76 68 85 76 63 71 72 83 80 82 75 67 70 77 66 63 62 59 56 63 70 72 65 66 67 66 62 56 51 54 57 58 55 50 48 49 48
55 66 62 62 64 71 65 68 72 77 79 76 77 89 86 88 85 80 77 74 74 66 59 62 68 69 72 73 73 69 68 69 67 63 63 59 57 56 58 56 53 52 53
59 69 63 71 70 68 69 72 72 76 89 80 81 88 81 82 81 78 79 75 73 68 65 67 72 70 76 75 78 77 73 72 72 68 59 63 61 59 62 61 57 56 52
63 75 84 84 79 85 88 87 82 87 89 86 87 91 86 87 87 88 83 80 79 83 85 86 78 77 79 79 85 83 78 77 74 76 74 69 68 68 64 67 65 60 60
68 72 77 79 75 75 84 89 97 105 94 98 96 99 99 96 96 95 95 93 90 90 100 102 96 92 86 90 87 92 87 83 82 81 80 79 75 74 70 73 70 67 58
67 73 76 83 85 86 91 94 93 101 102 102 98 99 99 109 108 106 100 98 98 101 105 107 105 101 102 99 99 97 100 96 91 89 86 84 79 76 78 79 78 72 71
61 73 79 85 87 93 103 101 101 105 105 107 106 108 112 111 106 115 114 112 114 113 113 110 112 114 112 110 104 104 106 106 103 98 93 91 86 82 82 82 80 78 74
57 63 61 66 75 87 95 101 99 102 105 106 111 116 116 112 113 117 122 125 126 124 121 121 123 121 116 112 110 108 111 108 104 101 100 94 89 88 90 88 82 81 79
40 53 75 72 68 71 68 69 73 84 90 100 117 120 123 127 129 131 131 130 132 133 133 131 124 122 124 121 117 109 112 116 108 104 105 102 97 96 96 92 87 84 83
44 39 42 55 73 73 69 68 72 77 83 84 88 101 113 122 127 129 133 136 137 137 135 132 125 115 109 106 105 102 105 109 114 111 108 104 106 100 100 99 95 88 89
46 48 49 50 55 56 62 71 77 78 79 78 79 80 82 83 86 88 90 94 95 97 99 101 101 97 94 92 92 94 95 100 106 110 109 108 106 106 106 105 103 98 93
56 59 60 62 64 66 68 69 70 73 77 78 79 81 82 84 83 83 85 85 86 86 86 87 87 87 88 89 89 90 91 95 97 100 104 103 103 103 104 106 104 99 94
62 65 66 68 72 76 77 79 83 85 85 86 87 86 88 90 91 91 91 90 90 91 91 90 89 89 89 90 89 91 92 93 95 97 98 99 99 98 100 100 100 98 98
75 78 79 81 82 83 85 87 88 88 90 94 93 96 96 97 99 98 98 99 102 102 101 100 100 99 98 97 97 96 96 95 96 97 99 99 99 100 99 100 100 102 102
83 85 87 89 92 93 95 96 96 97 101 101 101 103 103 103 105 106 107 110 111 111 110 108 108 107 107 107 106 104 101 99 99 99 99 101 102 101 100 103 104 104 106
84 89 90 92 94 96 98 99 100 101 103 105 104 109 111 106 107 109 109 108 110 112 113 112 115 115 113 112 110 110 111 108 106 105 105 102 101 104 104 103 104 105 107
85 86 87 89 91 95 97 100 101 102 104 104 104 104 108 108 105 105 107 107 106 107 109 109 110 111 110 110 111 112 112 112 111 111 110 109 109 108 107 107 108 109 111
73 73 75 76 78 80 82 84 86 88 90 91 91 93 95 96 96 97 99 102 101 100 102 103 104 106 106 106 107 107 106 106 106 110 112 113 113 113 114 113 113 113 114
65 67 69 72 74 77 80 83 85 88 89 90 89 88 90 92 91 91 90 93 95 96 98 99 98 100 100 99 100 101 103 104 105 105 105 106 108 112 113 114 115 114 116
63 67 70 73 76 79 81 82 82 80 78 78 80 82 83 88 89 89 88 89 89 88 89 90 92 94 96 96 97 98 99 99 99 100 101 103 105 106 106 109 110 111 114
66 70 74 77 79 81 81 78 75 71 70 70 71 73 75 78 81 81 81 82 83 84 84 83 84 85 86 88 90 91 92 94 95 95 96 98 99 101 101 103 105 108 109
74 77 80 83 84 83 78 74 70 67 66 65 65 66 67 69 72 75 76 77 77 77 78 78 79 79 79 81 82 84 85 88 90 90 91 92 93 94 97 99 100 103 104
78 81 84 85 84 81 77 73 70 67 65 63 62 61 61 62 64 66 68 70 71 71 71 72 71 73 72 75 75 76 77 78 79 81 83 86 87 89 91 92 93 96 98
81 83 84 82 79 76 73 71 69 66 65 62 61 59 58 58 59 59 61 63 65 66 67 67 68 68 69 69 68 70 70 70 71 72 74 75 77 79 81 83 85 89 90
Wind_Direction
182 190 189 186 182 197 205 200 214 225 232 233 245 255 255 263 257 254 248 255 261 249 248 251 244 232 236 246 251 257 259 263 268 272 273 275 274 273 278 282 282 285 287
181 179 183 192 193 202 208 207 204 212 226 240 249 251 250 251 261 250 258 254 252 250 252 252 246 237 243 245 246 247 253 255 258 264 268 268 271 274 279 279 277 282 287
176 173 181 195 198 208 218 217 211 216 224 234 242 245 245 252 257 248 244 256 246 243 248 255 246 238 240 247 251 251 252 255 256 254 262 264 264 270 276 277 275 281 284
177 174 180 182 202 212 217 223 224 222 225 235 238 241 241 246 244 248 252 251 247 245 250 251 243 240 243 246 248 248 252 254 257 258 259 262 263 267 272 275 273 278 282
177 172 179 194 209 208 214 219 221 222 225 231 238 240 243 242 245 245 246 248 249 249 255 255 242 243 245 245 245 247 251 254 256 255 257 259 260 262 268 270 272 276 279
187 190 182 188 203 205 212 213 210 217 221 224 229 234 236 242 243 246 247 249 250 252 258 260 249 247 248 252 245 245 247 251 252 254 255 255 258 261 265 267 268 272 272
184 190 195 203 207 206 205 211 221 222 223 225 231 238 237 238 240 242 241 244 249 253 260 259 257 250 253 251 254 246 244 246 249 250 253 256 257 262 262 265 264 267 265
190 197 203 208 206 209 209 215 222 224 227 229 237 239 244 243 243 246 247 250 252 254 256 257 257 258 259 261 257 253 247 245 246 249 250 252 255 258 260 261 263 263 266
201 205 208 212 214 220 218 224 225 227 230 234 239 237 243 246 248 248 249 251 253 253 255 257 258 262 261 260 257 255 254 249 248 249 252 253 250 254 255 256 259 261 264
216 214 220 225 220 223 229 234 236 237 236 238 241 241 245 249 249 251 252 252 252 255 259 261 263 265 263 260 257 254 251 247 248 250 250 251 252 252 252 254 261 263 264
209 220 223 227 232 235 238 238 239 240 240 243 242 243 246 248 250 252 254 255 256 258 260 261 261 262 263 262 260 258 251 250 247 249 251 251 251 253 253 253 258 260 263
220 221 222 227 230 232 237 239 243 244 244 246 247 246 248 250 252 254 255 255 256 257 258 261 262 260 260 259 257 256 252 250 248 249 250 251 252 253 253 254 258 259 261
234 235 236 236 233 235 238 236 236 239 241 243 246 248 249 251 252 252 253 253 254 255 256 256 256 256 257 256 256 256 253 252 250 250 250 251 254 253 254 256 258 259 258
245 244 240 237 237 236 238 243 247 248 250 252 252 252 252 252 252 253 253 254 255 257 258 258 258 258 257 257 257 256 255 254 252 251 252 253 254 254 254 255 257 257 257
243 246 248 249 247 247 248 248 246 246 247 251 254 255 255 255 255 255 256 257 258 259 261 260 260 260 259 259 259 258 257 256 255 254 254 253 254 254 253 254 254 256 257
246 245 246 247 249 249 250 251 256 258 256 256 257 255 257 257 255 255 256 256 256 256 255 255 255 256 257 258 259 258 257 256 256 255 254 253 254 253 253 253 254 253 255
252 253 254 255 254 255 256 257 258 258 259 261 260 260 260 260 259 258 257 256 255 255 255 257 257 258 258 257 257 257 257 255 255 255 255 254 253 253 253 254 253 253 253
259 260 262 262 262 263 264 265 265 265 265 265 264 264 268 267 266 265 264 263 261 261 261 260 259 260 259 258 258 258 256 256 255 254 253 252 253 253 253 253 253 254 254
266 268 269 270 271 270 270 270 271 271 271 270 269 269 268 267 266 265 265 264 263 262 262 262 262 262 262 261 261 262 261 260 257 256 254 254 253 253 253 253 253 253 253
275 277 277 276 276 275 274 273 273 272 272 270 269 268 268 268 267 266 265 266 265 263 262 261 260 260 260 261 261 261 261 260 259 259 257 256 256 255 254 253 254 254 254
282 281 281 282 281 279 278 278 277 276 275 276 276 275 274 273 272 270 268 266 265 264 264 264 263 262 262 262 261 261 260 259 260 259 259 258 258 257 257 256 256 256 257
286 286 286 285 284 283 283 282 281 280 279 278 276 274 272 272 272 272 271 271 270 268 266 265 265 264 264 264 264 263 262 261 261 260 260 259 259 258 258 258 258 259 259
293 294 293 292 292 291 291 291 291 288 284 280 277 275 273 272 271 272 271 270 270 270 270 269 267 266 265 264 263 263 263 263 263 262 262 261 261 260 260 259 259 260 260
298 297 296 296 295 296 297 297 294 291 288 285 281 277 274 272 271 271 271 271 271 269 268 268 267 266 266 265 264 263 262 261 261 261 261 260 260 260 260 260 260 260 260
298 297 296 296 298 299 300 299 297 294 292 289 285 282 279 275 273 271 271 271 271 270 269 268 267 267 266 265 265 264 263 262 261 261 260 260 260 261 260 260 260 259 259
298 297 299 300 301 301 299 298 296 296 294 292 289 286 283 280 277 274 272 270 270 269 269 269 268 268 267 267 265 264 264 263 263 262 261 260 260 260 259 259 259 260 261